Theta_e
315 315 315 315 315 314 314 314 314 316 317 316 318 318 316 315 316 316 316 316 315 315 315 315 315 315 316 319 318 318 323 322 321 320 321 318 319 318 316 315 316 315 314 314 314
318 316 316 315 315 315 314 315 315 317 318 316 318 318 316 316 316 317 317 317 317 317 315 315 317 316 319 318 319 321 323 321 319 319 319 318 317 317 316 317 317 315 315 314 313
320 318 317 317 316 315 315 315 316 318 319 316 317 318 316 315 318 317 316 314 314 314 315 315 316 317 320 318 319 320 321 319 318 317 317 316 317 315 315 317 314 314 314 313 309
321 320 319 318 318 317 316 316 317 319 320 317 317 318 315 316 321 317 312 312 312 312 313 315 317 319 320 320 318 318 318 317 317 315 315 316 314 315 315 315 313 312 313 308 308
322 320 319 319 319 319 318 318 319 321 320 318 318 318 316 318 317 315 313 313 311 312 312 313 316 317 319 318 318 318 318 315 314 313 313 313 314 314 315 314 311 312 309 307 306
322 321 319 320 320 320 319 319 320 321 321 318 320 317 317 320 317 315 314 313 311 311 312 313 315 315 317 318 317 317 315 315 314 314 313 314 313 312 315 313 310 310 307 306 305
323 321 320 320 321 320 320 320 321 322 321 318 319 318 319 318 315 313 311 313 312 311 312 313 312 314 316 318 315 314 316 317 315 314 314 313 314 315 314 311 310 310 307 305 304
323 322 321 321 321 320 320 321 322 322 321 318 317 317 318 313 310 310 311 312 310 311 312 313 312 313 314 314 316 316 317 318 316 314 312 313 314 315 314 311 311 308 306 305 303
322 322 321 321 320 320 321 322 323 322 319 319 317 319 317 314 312 311 310 311 309 311 312 313 312 314 315 318 318 319 319 318 316 314 314 313 314 315 313 310 309 306 304 303 302
319 322 321 320 320 319 321 322 322 319 317 319 318 319 315 318 315 312 311 310 310 311 315 315 315 316 319 315 316 315 314 316 316 315 314 314 314 312 311 309 307 304 302 301 301
317 321 321 320 319 318 319 322 319 319 319 316 316 316 315 315 314 313 311 309 310 314 318 316 315 317 318 313 313 314 315 315 314 314 312 311 311 311 309 306 305 303 301 299 299
315 319 320 320 318 316 318 316 311 313 314 316 315 315 316 315 314 313 310 313 313 317 318 318 319 315 313 313 314 314 313 312 312 313 311 310 309 310 308 304 303 301 299 298 297
314 318 319 319 318 313 315 314 313 309 315 315 313 316 315 314 313 313 310 311 314 317 317 315 316 311 313 314 312 312 311 312 311 311 310 309 309 308 304 302 300 300 299 298 296
313 316 319 318 313 314 311 313 312 309 319 319 315 316 313 313 313 311 310 311 316 315 313 311 311 312 313 312 310 311 308 308 309 309 308 308 307 310 306 304 301 299 298 297 295
312 315 320 318 315 310 310 312 312 311 328 315 316 312 313 312 312 312 311 309 313 314 310 313 308 309 309 310 310 311 305 306 307 308 308 308 307 309 310 307 300 299 297 295 295
312 313 319 315 311 310 308 310 311 320 325 318 316 316 315 311 312 311 311 308 307 309 309 309 308 310 311 310 308 304 306 306 307 307 308 308 306 308 307 302 299 298 296 295 294
312 313 319 315 309 308 307 309 321 323 318 320 317 315 315 316 315 312 313 312 313 314 315 311 311 309 306 309 308 306 306 307 312 313 313 305 303 305 301 298 297 296 295 294 294
312 316 319 318 311 304 305 314 323 322 323 313 314 313 316 315 316 311 311 314 310 310 309 311 312 310 307 307 306 304 304 305 306 309 308 304 302 303 300 297 297 295 294 294 293
318 316 318 319 313 304 306 318 319 321 320 316 313 317 320 312 310 310 311 314 311 309 310 309 308 303 300 302 303 306 304 302 302 302 300 303 303 300 299 298 297 295 294 293 292
317 316 316 318 311 301 307 316 318 317 312 313 320 321 321 320 314 313 314 311 307 306 305 308 307 305 299 299 298 299 300 300 300 301 303 304 303 302 298 297 296 295 294 293 292
317 316 313 315 308 306 311 314 315 315 312 315 318 320 319 318 316 316 316 310 307 303 302 304 303 303 299 299 302 297 298 297 297 299 299 301 303 298 297 296 294 294 293 292 292
315 314 313 305 308 309 312 314 312 310 308 312 311 315 318 318 318 315 316 313 305 302 302 302 302 302 301 297 296 296 297 298 297 299 296 297 297 299 297 296 294 293 292 292 291
315 312 312 302 313 313 311 310 309 311 310 311 311 311 314 314 315 314 313 300 302 301 302 298 299 301 302 297 295 295 295 296 297 295 298 298 298 297 296 297 294 293 292 291 290
314 311 307 307 310 313 315 314 313 309 310 311 313 314 312 310 311 314 308 298 298 299 296 297 298 301 308 307 296 295 295 296 295 296 298 297 297 297 297 296 294 292 292 291 289
314 310 311 313 310 311 314 315 316 317 311 311 311 312 311 311 313 309 307 298 296 296 296 296 298 299 299 298 297 296 295 295 295 296 296 297 296 296 295 295 292 292 291 290 289
315 313 310 310 316 313 313 315 315 316 317 314 312 313 309 311 312 316 306 301 300 297 297 297 299 296 295 295 295 295 295 296 295 295 295 295 295 295 295 292 292 291 290 289 289
313 314 313 315 314 315 315 314 316 315 315 315 315 313 311 308 305 301 302 300 301 298 298 296 297 296 298 294 293 297 296 295 295 295 294 294 295 295 293 292 291 290 289 289 287
Wind_Speed
11 13 14 15 18 19 21 21 23 25 27 25 30 22 8 5 6 8 10 11 10 9 9 9 7 8 3 1 1 3 4 3 2 2 3 3 7 8 5 6 5 3 8 16 17
12 13 14 15 17 19 20 21 22 22 26 25 28 20 7 5 8 12 11 13 11 11 9 7 5 6 4 2 1 3 3 3 4 4 8 10 9 10 6 8 14 13 14 19 15
12 13 14 15 16 18 19 20 21 22 24 23 27 21 5 4 3 9 12 13 11 10 10 9 8 5 5 2 0 1 4 3 2 3 9 10 7 5 8 7 12 14 21 16 16
12 13 14 16 17 18 19 20 20 22 24 23 27 20 5 5 2 5 9 12 14 13 13 9 6 6 5 4 2 5 3 1 1 4 8 7 7 8 3 9 12 16 13 14 17
13 14 16 17 17 18 18 20 21 22 24 23 29 13 5 5 4 3 7 11 15 14 13 10 6 5 5 5 7 4 3 1 4 8 9 7 7 4 5 7 19 12 13 14 16
13 14 16 18 18 19 18 19 20 21 24 21 27 6 5 3 5 1 5 8 13 12 10 8 5 6 4 4 4 3 9 9 1 2 3 7 10 2 2 13 17 13 12 14 16
13 15 16 18 19 19 18 19 20 22 24 20 17 5 5 5 4 1 5 4 11 13 8 8 8 3 4 6 1 6 7 3 6 1 1 12 4 5 7 16 13 9 11 12 15
14 15 17 18 19 19 19 19 20 21 22 22 5 3 2 8 4 3 7 3 11 12 8 8 7 3 3 5 4 3 2 3 5 2 3 11 12 6 9 12 4 7 6 6 10
15 16 17 19 19 19 20 20 21 22 11 16 2 3 4 7 3 4 7 5 11 13 10 9 3 3 4 7 10 8 5 11 6 5 3 6 15 8 17 3 8 7 7 9 12
15 16 18 19 19 20 21 21 21 12 5 6 1 1 4 3 6 5 8 8 8 13 8 4 4 6 7 8 9 12 13 10 13 3 10 9 14 16 14 8 9 6 7 11 14
16 16 17 18 18 20 22 23 15 4 24 5 14 7 3 3 5 4 7 11 9 6 11 9 8 10 5 7 10 11 11 13 16 5 9 13 17 18 11 11 9 5 7 13 17
16 16 17 17 17 15 17 12 9 9 11 15 6 7 5 2 1 3 7 5 6 14 14 14 13 5 7 6 7 12 16 16 9 3 12 17 20 14 11 9 7 5 8 13 16
16 15 16 16 15 10 13 13 14 14 6 4 4 3 3 2 0 2 4 5 6 12 12 11 14 4 5 9 13 13 16 11 11 14 17 14 15 13 14 12 7 4 7 10 20
16 15 14 14 11 12 9 13 15 16 5 4 4 4 2 2 2 2 3 3 5 9 8 10 4 4 8 12 5 13 5 11 15 15 11 17 7 14 17 11 4 4 9 17 26
17 15 13 11 11 9 9 11 13 6 6 2 3 3 3 4 3 3 2 1 9 15 3 4 5 8 11 7 2 6 10 11 18 19 21 12 8 10 14 14 3 6 13 21 28
18 16 13 12 9 9 8 9 10 4 8 3 2 3 3 4 3 1 1 2 3 6 9 16 1 4 5 2 3 8 11 19 20 10 6 2 3 7 2 0 2 9 18 27 29
19 17 13 12 9 7 5 6 5 6 3 5 3 2 1 3 3 1 3 6 6 6 7 7 11 2 3 6 7 7 9 7 3 4 7 10 7 12 9 4 4 12 23 27 28
19 17 15 14 12 8 4 4 9 8 8 3 2 1 5 3 3 3 4 9 9 7 7 7 8 9 4 3 4 1 2 3 7 6 12 14 9 5 12 7 1 15 25 26 30
17 16 18 15 12 10 7 9 7 4 1 4 3 6 10 3 4 4 9 13 4 13 9 5 6 4 3 1 2 6 5 4 5 2 5 8 10 6 11 4 6 21 25 27 31
17 15 16 18 12 13 7 18 13 2 4 3 7 7 14 11 6 5 5 6 5 8 3 0 9 5 5 2 1 4 8 3 4 5 7 7 19 12 10 6 11 20 26 28 33
17 8 11 14 16 10 11 11 16 19 12 9 13 16 14 12 14 15 9 7 10 9 8 1 5 5 4 9 12 5 5 6 4 4 4 8 8 6 2 3 14 22 26 31 36
20 5 10 15 11 9 13 9 8 12 15 12 5 14 20 18 17 12 15 9 14 15 10 7 4 9 13 3 5 7 11 14 6 7 8 8 14 14 5 4 16 24 28 34 37
13 15 12 22 8 13 12 10 11 12 11 10 11 10 11 17 10 16 13 4 13 13 13 9 6 4 4 3 3 6 10 17 14 4 15 10 9 8 12 18 24 26 29 33 37
13 4 8 21 18 16 19 22 21 15 23 22 16 15 10 10 15 12 7 4 9 12 5 10 7 11 12 10 1 6 13 17 16 11 16 22 30 20 21 17 23 28 30 35 34
23 9 13 7 11 20 23 17 20 22 18 10 10 22 14 12 17 17 15 6 7 6 6 5 9 13 17 18 15 16 16 17 22 24 20 29 22 21 19 19 22 27 33 37 35
29 13 14 14 25 19 23 22 31 29 22 15 22 14 18 27 22 20 9 7 6 12 12 5 6 6 6 13 14 19 19 21 23 25 26 25 29 22 25 14 22 29 33 32 33
40 33 24 21 15 17 21 30 32 23 31 37 26 18 20 22 13 4 9 9 6 12 16 8 7 4 7 5 9 14 22 25 26 21 19 20 24 17 14 13 21 28 28 28 34
Wind_Direction
14 11 9 4 1 359 360 358 356 359 357 355 0 6 14 70 55 33 36 26 13 359 353 359 353 328 334 290 18 307 244 236 108 264 354 115 326 343 312 294 341 21 11 355 346
4 5 360 358 356 354 352 350 351 353 350 350 357 5 14 108 67 56 31 4 359 4 9 353 331 323 255 244 209 269 280 62 32 336 303 327 346 328 326 336 30 2 355 358 16
355 356 351 350 349 349 346 345 345 346 347 346 352 1 21 160 103 25 23 32 27 13 360 345 336 321 270 253 70 30 328 49 69 300 307 321 315 327 326 44 26 358 348 11 28
343 347 345 345 345 345 344 340 342 343 343 342 347 356 56 116 8 19 35 26 21 8 0 342 330 309 294 291 21 290 60 237 244 288 311 327 324 319 32 51 4 356 15 36 37
336 340 340 341 343 342 343 338 338 340 340 341 346 357 118 85 83 53 26 25 16 11 0 357 347 335 307 320 309 255 91 339 287 293 296 318 306 344 95 31 357 27 54 45 43
330 335 337 340 339 341 341 336 334 338 338 336 346 22 123 158 131 43 357 12 5 6 357 352 339 317 271 273 265 349 300 286 302 301 284 337 313 220 112 357 3 67 60 47 40
323 330 333 336 337 338 337 335 332 335 335 333 349 82 109 157 141 22 337 329 351 359 352 334 324 301 320 284 32 299 297 124 159 221 197 321 198 161 1 345 0 73 57 44 36
318 325 330 333 336 336 334 333 331 331 327 334 4 150 112 146 119 26 348 349 348 352 349 328 327 277 250 300 213 239 237 3 130 222 176 333 306 4 346 345 63 104 68 49 31
312 321 326 330 334 334 334 332 332 323 310 338 78 153 154 190 215 322 350 321 344 344 326 338 329 266 239 279 295 200 331 318 303 248 232 319 297 309 319 58 137 112 59 25 10
305 318 323 328 332 334 333 335 336 318 296 341 18 191 178 212 245 322 345 343 336 337 323 322 277 273 235 345 321 304 303 305 294 7 327 289 288 313 319 121 134 108 42 21 12
298 311 317 324 332 337 339 357 360 319 326 265 289 246 233 252 253 293 337 334 328 304 326 325 303 306 328 324 306 300 292 294 292 78 320 307 305 310 110 127 137 101 32 18 17
294 304 312 322 331 339 350 19 5 316 310 301 253 234 241 224 215 308 331 316 322 317 316 305 296 16 312 305 298 295 295 301 309 346 317 309 298 293 141 131 128 75 29 15 359
286 296 306 318 327 331 350 355 342 335 272 268 224 201 195 192 211 293 357 331 311 305 316 289 293 331 292 299 300 293 305 317 302 309 287 301 292 138 145 137 123 63 12 358 351
283 291 300 313 318 329 334 340 333 337 272 166 185 197 198 159 210 219 353 351 289 301 319 286 11 309 289 282 310 297 6 317 305 313 308 320 289 187 165 164 123 33 4 354 348
277 281 288 299 302 311 314 327 323 337 292 111 154 174 194 207 142 224 272 217 273 291 248 286 291 291 283 298 329 294 341 306 295 289 301 273 231 257 165 194 123 7 360 354 350
271 275 278 284 285 288 304 315 317 247 245 168 155 170 214 197 192 25 240 240 255 270 243 266 269 247 274 234 238 300 291 302 276 275 260 141 264 237 208 278 5 357 354 351 347
265 269 269 268 263 274 295 312 269 234 108 177 196 208 244 259 280 317 262 235 258 284 249 198 222 179 240 257 207 262 314 315 302 224 272 156 312 246 148 126 22 355 351 346 343
263 263 264 261 256 249 226 232 247 262 248 82 135 153 245 353 220 214 236 270 212 242 283 271 265 186 151 258 342 337 280 258 285 296 294 310 251 299 131 143 344 350 350 344 340
270 270 274 262 248 224 193 223 253 255 58 179 182 251 265 203 262 249 230 253 254 202 215 241 248 117 35 357 279 137 206 18 276 243 277 238 234 149 165 213 332 342 346 341 334
256 273 267 260 238 205 218 232 239 173 152 206 244 237 264 272 211 213 246 176 205 209 203 265 281 171 118 153 123 270 129 161 203 268 266 265 297 275 189 321 336 341 340 333 330
246 265 248 232 205 198 223 226 246 239 203 212 247 254 258 268 244 266 254 184 189 173 191 167 231 139 152 208 220 179 211 219 285 234 266 302 281 107 357 1 344 333 333 331 331
233 230 239 196 186 217 228 236 233 227 217 243 274 260 263 263 261 243 250 232 168 161 173 188 241 252 242 48 291 271 244 210 217 209 223 267 272 286 198 9 338 332 331 330 331
223 236 235 189 223 228 236 252 251 227 211 207 229 225 249 251 257 236 253 59 178 181 175 170 207 242 236 239 178 217 220 234 236 311 243 250 257 154 202 322 337 327 326 327 328
221 228 191 207 241 251 243 240 238 220 248 235 253 239 229 243 231 263 220 197 205 210 150 178 220 228 255 303 109 216 216 214 213 237 256 238 267 270 289 308 325 319 322 324 322
218 222 213 204 226 236 240 249 248 242 220 233 247 230 217 247 230 238 237 131 198 196 197 217 248 240 263 274 276 260 254 224 219 237 244 268 261 276 297 315 319 315 321 323 322
217 210 217 254 238 217 225 232 239 242 239 222 234 229 219 235 223 261 186 156 186 196 199 207 254 285 270 265 273 271 259 248 247 242 247 256 271 274 285 311 311 316 320 316 320
222 231 226 238 221 235 222 234 242 241 244 244 245 239 237 240 252 106 150 172 203 183 203 199 205 191 259 15 317 281 246 238 240 231 235 246 255 279 292 314 314 312 310 313 320